Location: Niles Junction
(37.5763°N, 121.9714°W)
Time: 04:14:40
(UTC+00:00)

CZ-4B R/B - Pass Details

Date: 29 October 2020
Orbit: 389 x 462 km, 97.6° (Epoch: 23 November)

Event Time Altitude Azimuth Distance (km) Brightness Sun altitude
Rises 13:36:21 0° 195° (SSW) 2,479 5.1 -11.3°
Reaches altitude 10° 13:38:43 10° 211° (SSW) 1,608 4.0 -10.8°
Maximum altitude 13:41:27 22° 264° (W) 1,062 2.7 -10.3°
Drops below altitude 10° 13:44:12 10° 316° (NW) 1,606 3.7 -9.8°
Enters shadow 13:45:14 - 325° (NW) 1,966 4.2 -9.6°
